Location: Bothwell
(42.3833°S, 147.0000°E)
Time: 21:10:24
(UTC+10:00)

CUTE 1.7 + AOD 2 - Pass Details

Date: 02 February 2023
Orbit: 584 x 601 km, 97.7° (Epoch: 02 April)

Event Time Altitude Azimuth Distance (km) Brightness Sun altitude
Exits shadow 02:59:14 12° 74° (ENE) 1,793 ? -26.8°
Maximum altitude 03:01:43 19° 114° (ESE) 1,431 ? -26.6°
Drops below altitude 10° 03:04:43 10° 160° (SSE) 1,947 ? -26.3°
Sets 03:07:23 0° 177° (S) 2,861 ? -26.1°
